Regional Weather Roundup
Issued by NWS State College, PA

Home | Current Version | Previous Version | Graphics & Text | Print | Product List | Glossary On
Versions: 1 2 3 4 5 6 7 8 9 10 11 12 13 14 15 16 17 18 19 20 21 22 23 24 25 26 27 28 29 30 31 32 33 34 35 36 37 38 39 40 41 42 43 44 45 46 47 48 49 50
281
ASUS41 KCTP 270910
RWRCTP

REGIONAL WEATHER ROUNDUP
NATIONAL WEATHER SERVICE STATE COLLEGE PA
500 AM EDT WED JUL 27 2016

Note: "fair" indicates few or no clouds below 12,000 feet with no
significant weather and/or obstructions to visibility.

* = STATION THAT DOES NOT REPORT PRECIPITATION /E.G. RAIN...SNOW...ETC/
    THUNDER OR FOG.

PAZ002>004-007>009-013>016-020>023-029>032-271000-
WESTERN PENNSYLVANIA

CITY           SKY/WX    TMP DP  RH WIND       PRES   REMARKS
ERIE           CLEAR     64  58  80 S5        30.00S
MEADVILLE      CLEAR     58  55  90 CALM      30.04R
FRANKLIN*      CLEAR     55  54  94 SW6       30.06R
NEW CASTLE     FAIR      63  62  97 CALM      30.03S
BEAVER COUNTY  NOT AVBL
BUTLER*        CLOUDY    63  61  94 CALM      30.05S
PITTSBURGH INT CLOUDY    71  62  73 CALM      30.01S
PITTSBURGH     LGT RAIN  71  60  68 CALM      30.01S
INDIANA*       CLOUDY    64  63  94 CALM      30.05S
LATROBE        CLOUDY    66  66 100 CALM      30.02S
WASHINGTON CO* CLOUDY    66  63  88 CALM      30.02S
$$

PAZ004>006-010>012-017>019-024>028-033>037-041-042-045-046-049>053-271000-
CENTRAL PENNSYLVANIA

CITY           SKY/WX    TMP DP  RH WIND       PRES   REMARKS
BRADFORD       CLEAR     52  50  93 CALM      30.05S
DUBOIS         CLEAR     61  57  87 CALM      30.03F
CLEARFIELD     PTCLDY    59  56  89 CALM      30.03S
JOHNSTOWN      PTCLDY    67  55  65 SW5       30.06S
ALTOONA        CLOUDY    63  58  83 CALM      30.03S
STATE COLLEGE  CLEAR     66  60  81 CALM      30.01S
WILLIAMSPORT   CLEAR     65  60  84 CALM      29.98R
SELINSGROVE    CLEAR     64  64 100 CALM      29.98S
FT INDIANTOWN  CLOUDY    71  62  73 N3        29.96S
CAPITAL CITY   CLOUDY    74  65  73 CALM      29.96R
HARRISBURG     CLOUDY    75  65  70 NW5       29.95R
YORK           CLOUDY    72  67  84 CALM      29.95S
$$

PAZ038>040-043-044-047-048-054-055-060>062-067>071-271000-
EASTERN PENNSYLVANIA

CITY           SKY/WX    TMP DP  RH WIND       PRES   REMARKS
SCRANTON       PTCLDY    64  60  87 E8        29.99S
MOUNT POCONO   MOCLDY    59  32  36 CALM      30.02S
ALLENTOWN      PTCLDY    69  63  81 CALM      29.96S
QUAKERTOWN*    MOSUNNY   68  66  94 CALM      29.97S
READING        CLOUDY    73  64  73 N3        29.95R
LANCASTER      CLOUDY    72  67  84 E5        29.95S
COATESVILLE    CLOUDY    75  66  73 N3        29.98R
POTTSTOWN      CLOUDY    72  65  78 CALM      29.97R
BLUE BELL      CLOUDY    70  64  83 CALM      29.94R
DOYLESTOWN     CLOUDY    71  64  78 CALM      29.95S
WILLOW GROVE   NOT AVBL
NORTH PHILA    MOCLDY    76  66  71 NE3       29.95S
PHILADELPHIA   CLOUDY    78  66  66 NE6       29.93S
$$




USA.gov is the U.S. government's official web portal to all federal, state and local government web resources and services.